sat.trackr.live / text

‹ back to catalog

STARLINK-33962

NORAD 63950 · 2025-098AA

PAYLOAD ACTIVE UNKNOWN

§ Identity

Operator
Country
US
Launch date
2025-05-13
Launch site
AFWTR
Launch vehicle
Mass (kg)
RCS (m²)

Purposes: comms

External: N2YO · Heavens-Above · Gunter

§ Orbital elements

Epoch: 2026-05-25T02:53:51.489312Z

Period
96.14 min
Inclination
70.0008°
Eccentricity
0.0006270
Mean motion
14.97822181 rev/d
Perigee alt
569.3 km
Apogee alt
578.0 km
Semi-major
6,951.8 km
B*
-1.2119e-2
RAAN
81.6409°
Arg perigee
324.1692°
Mean anomaly
35.9045°
Rev number
5,799

§ Raw data

STARLINK-339621 63950U 25098AA  26145.12073483 -.00140057  00000+0 -12119-1 0  99962 63950  70.0008  81.6409 0006270 324.1692  35.9045 14.97822181 57999

JSON: /api/v1/satellites/63950 · /tle

For live sub-satellite position, see the globe view (requires WebGL).

§ Visibility from observer

Set your observer location to see the next 7 days of passes ≥ 10°. The values pass through the URL so the page stays shareable.

No JS? Fill the form by hand. The geolocation button needs JavaScript.